Regional Weather Roundup
Issued by NWS

Current Version | Previous Version | Text Only | Print | Product List | Glossary On
Versions: 1 2 3 4 5 6 7 8 9 10 11 12 13 14 15 16 17 18 19 20 21 22 23 24 25 26 27
000
ASUS45 KREV 311210
RWRNV
NEVADA REGIONAL WEATHER ROUNDUP
NATIONAL WEATHER SERVICE RENO NV
500 AM PDT TUE MAY 31 2016

NOTE: "FAIR" INDICATES FEW OR NO CLOUDS BELOW 12,000 FEET WITH NO
SIGNIFICANT WEATHER AND/OR OBSTRUCTIONS TO VISIBILITY.

NVZ001-003-004-311300-
WESTERN NEVADA

CITY           SKY/WX    TMP DP  RH WIND       PRES   REMARKS
RENO           PTCLDY    59  41  51 SW3       30.12S
6HR MIN TEMP:  57; 6HR MAX TEMP:  71;

CARSON CITY    FAIR      48  39  71 CALM      30.14S
MINDEN         FAIR      41  36  81 SE7       30.14S
SLIDE MTN        N/A     46  27  46 NE15        N/A
FALLON         PTCLDY    50  27  40 CALM      30.08R
6HR MIN TEMP:  49; 6HR MAX TEMP:  64;

LOVELOCK       CLEAR     61  27  27 N5        30.09R
6HR MIN TEMP:  56; 6HR MAX TEMP:  68;

HAWTHORNE      CLEAR     63  34  34 CALM      30.09R
$$

NVZ002-CAZ072-073-311300-
NORTHERN AND CENTRAL SIERRA

CITY           SKY/WX    TMP DP  RH WIND       PRES   REMARKS
S. LAKE TAHOE  CLEAR     41  38  89 CALM      30.20S
6HR MIN TEMP:  41; 6HR MAX TEMP:  52;

TRUCKEE        FOG       39  39 100 CALM      30.20S VSB 1/4
SQUAW VLY 8000 NOT AVBL
SUSANVILLE     CLEAR     48  37  66 W6        30.11S
MAMMOTH LAKES  FAIR      44  32  62 NW3       30.24S
6HR MIN TEMP:  44; 6HR MAX TEMP:  52;

BRIDGEPORT     FAIR      37  29  72 CALM      30.23R
$$

NVZ030-031-036-311300-
NORTHERN NEVADA

CITY           SKY/WX    TMP DP  RH WIND       PRES   REMARKS
ELKO           CLEAR     43  36  76 CALM      30.16R
6HR MIN TEMP:  41; 6HR MAX TEMP:  57;

WINNEMUCCA     PTCLDY    38  28  67 SE5       30.13R
6HR MIN TEMP:  37; 6HR MAX TEMP:  64;

WENDOVER       CLEAR     57  28  33 CALM      30.10R
$$

NVZ035-037-311300-
CENTRAL NEVADA

CITY           SKY/WX    TMP DP  RH WIND       PRES   REMARKS
ELY            PTCLDY    38  31  76 S10       30.17R
6HR MIN TEMP:  37; 6HR MAX TEMP:  56;

EUREKA           N/A     40  33  76 S3        30.17S
6HR MIN TEMP:  39; 6HR MAX TEMP:  50;

$$

NVZ013-014-311300-
SOUTH CENTRAL NEVADA

CITY           SKY/WX    TMP DP  RH WIND       PRES   REMARKS
TONOPAH        CLEAR     57  28  33 N14       30.12R
6HR MIN TEMP:  55; 6HR MAX TEMP:  65;

$$

NVZ017-020-022-311300-
SOUTHERN NEVADA

CITY           SKY/WX    TMP DP  RH WIND       PRES   REMARKS
LAS VEGAS      PTCLDY    78  34  20 CALM      29.81R
6HR MIN TEMP:  77; 6HR MAX TEMP:  87;

N. LAS VEGAS   CLEAR     76  33  21 NW6       29.84R
6HR MIN TEMP:  75; 6HR MAX TEMP:  86;

NELLIS AFB     CLEAR     78  33  20 VRB1      29.82R
6HR MIN TEMP:  78; 6HR MAX TEMP:  82;

HENDERSON      CLEAR     68  37  32 SE5       29.88R
6HR MIN TEMP:  68; 6HR MAX TEMP:  81;

MERCURY        CLEAR     73  30  20 NE13      29.91S
6HR MIN TEMP:  71; 6HR MAX TEMP:  76;

$$




USA.gov is the U.S. government's official web portal to all federal, state and local government web resources and services.